When you browse on this site, cookies collect data to enhance your experience and personalize the content and advertising you see.
Visit our Privacy Policy to learn more. By continuing to use the site, you agree to this use of cookies and data.
  • Em Portugal
  • Lista de países
  • Para 7 dias
  • Temperatura da água
  • Mapas de satélite
  • Mapa do tempo
  • Widgets de tempo
  • user-avatar
    Iniciar Sessão

    Previsão horária em Dvor-Poreche

    Hoje, 19 Abril, Sexta-feira

    Tempo Temperatura Precipitação Vento Pressão Humidade
    00:00 +6°C° 0 mm 2 m/s 759 mmHg 69%
    01:00 +6°C° 0 mm 2 m/s 760 mmHg 71%
    02:00 +6°C° 0 mm 1 m/s 760 mmHg 74%
    03:00 +6°C° 0 mm 1 m/s 760 mmHg 75%
    04:00 +5°C° 0 mm 1 m/s 760 mmHg 77%
    05:00 +5°C° 0 mm 1 m/s 760 mmHg 78%
    06:00 +6°C° 0 mm 1 m/s 760 mmHg 73%
    07:00 +8°C° 0 mm 1 m/s 761 mmHg 67%
    08:00 +9°C° 0 mm 2 m/s 761 mmHg 61%
    09:00 +10°C° 0 mm 2 m/s 761 mmHg 55%
    10:00 +12°C° 0 mm 2 m/s 761 mmHg 49%
    11:00 +13°C° 0 mm 3 m/s 761 mmHg 43%
    12:00 +13°C° 0 mm 3 m/s 761 mmHg 39%
    13:00 +14°C° 0 mm 3 m/s 760 mmHg 36%
    14:00 +16°C° 0 mm 3 m/s 760 mmHg 33%
    15:00 +14°C° 0 mm 3 m/s 760 mmHg 33%
    16:00 +15°C° 0 mm 2 m/s 760 mmHg 33%
    17:00 +15°C° 0 mm 2 m/s 759 mmHg 33%
    18:00 +13°C° 0 mm 1 m/s 759 mmHg 38%
    19:00 +12°C° 0 mm 1 m/s 759 mmHg 43%
    20:00 +9°C° 0 mm 0 m/s 759 mmHg 48%
    21:00 +9°C° 0 mm 0 m/s 759 mmHg 49%
    22:00 +9°C° 0 mm 1 m/s 759 mmHg 50%
    23:00 +9°C° 0 mm 1 m/s 759 mmHg 51%

    Amanhã, 20 Abril, Sábado

    Tempo Temperatura Precipitação Vento Pressão Humidade
    00:00 +9°C° 0 mm 1 m/s 758 mmHg 52%
    01:00 +9°C° 0 mm 1 m/s 758 mmHg 53%
    02:00 +8°C° 0 mm 1 m/s 758 mmHg 55%
    03:00 +8°C° 0 mm 1 m/s 758 mmHg 56%
    04:00 +8°C° 0 mm 1 m/s 757 mmHg 57%
    05:00 +8°C° 0 mm 1 m/s 757 mmHg 58%
    06:00 +9°C° 0 mm 1 m/s 757 mmHg 59%
    07:00 +9°C° 0 mm 1 m/s 757 mmHg 60%
    08:00 +10°C° 0 mm 1 m/s 757 mmHg 60%
    09:00 +11°C° 0.1 mm 1 m/s 757 mmHg 58%
    10:00 +12°C° 0.1 mm 1 m/s 756 mmHg 56%
    11:00 +13°C° 0.1 mm 1 m/s 756 mmHg 54%
    12:00 +13°C° 0.1 mm 1 m/s 756 mmHg 54%
    13:00 +13°C° 0.1 mm 2 m/s 756 mmHg 55%
    14:00 +13°C° 0.1 mm 2 m/s 756 mmHg 55%
    15:00 +13°C° 0.2 mm 2 m/s 755 mmHg 58%
    16:00 +12°C° 0.2 mm 1 m/s 755 mmHg 61%
    17:00 +12°C° 0.2 mm 1 m/s 755 mmHg 65%
    18:00 +11°C° 0.3 mm 1 m/s 755 mmHg 70%
    19:00 +10°C° 0.3 mm 1 m/s 755 mmHg 75%
    20:00 +8°C° 0.3 mm 0 m/s 755 mmHg 80%
    21:00 +8°C° 0.2 mm 1 m/s 755 mmHg 82%
    22:00 +8°C° 0.2 mm 1 m/s 754 mmHg 84%
    23:00 +8°C° 0.2 mm 1 m/s 754 mmHg 87%

    Depois de amanhã, 21 Abril, Domingo

    Tempo Temperatura Precipitação Vento Pressão Humidade
    00:00 +8°C° 0.2 mm 1 m/s 754 mmHg 88%
    01:00 +7°C° 0.2 mm 2 m/s 754 mmHg 90%
    02:00 +6°C° 0.2 mm 2 m/s 754 mmHg 92%
    03:00 +6°C° 0.2 mm 2 m/s 754 mmHg 93%
    04:00 +6°C° 0.2 mm 2 m/s 754 mmHg 94%
    05:00 +5°C° 0.2 mm 2 m/s 754 mmHg 95%
    06:00 +6°C° 0 mm 2 m/s 754 mmHg 92%
    07:00 +7°C° 0 mm 3 m/s 755 mmHg 90%
    08:00 +7°C° 0 mm 3 m/s 755 mmHg 87%
    09:00 +9°C° 0 mm 3 m/s 755 mmHg 81%
    10:00 +10°C° 0 mm 3 m/s 755 mmHg 75%
    11:00 +11°C° 0 mm 3 m/s 756 mmHg 69%
    12:00 +12°C° 0.2 mm 4 m/s 756 mmHg 63%
    13:00 +13°C° 0.2 mm 4 m/s 756 mmHg 56%
    14:00 +15°C° 0.2 mm 5 m/s 756 mmHg 49%
    15:00 +15°C° 0 mm 5 m/s 756 mmHg 48%
    16:00 +14°C° 0 mm 5 m/s 756 mmHg 47%
    17:00 +14°C° 0 mm 5 m/s 756 mmHg 46%
    18:00 +12°C° 0 mm 4 m/s 757 mmHg 52%
    19:00 +11°C° 0 mm 3 m/s 757 mmHg 59%
    20:00 +9°C° 0 mm 3 m/s 758 mmHg 65%
    21:00 +8°C° 0 mm 3 m/s 758 mmHg 66%
    22:00 +7°C° 0 mm 2 m/s 758 mmHg 68%
    23:00 +7°C° 0 mm 2 m/s 759 mmHg 69%

    22 Abril, Segunda-feira

    Tempo Temperatura Precipitação Vento Pressão Humidade
    00:00 +6°C° 0 mm 2 m/s 759 mmHg 69%
    01:00 +6°C° 0 mm 2 m/s 759 mmHg 69%
    02:00 +6°C° 0 mm 2 m/s 759 mmHg 69%
    03:00 +5°C° 0 mm 2 m/s 759 mmHg 70%
    04:00 +5°C° 0 mm 2 m/s 759 mmHg 71%
    05:00 +5°C° 0 mm 2 m/s 760 mmHg 72%
    06:00 +7°C° 0 mm 2 m/s 760 mmHg 67%
    07:00 +8°C° 0 mm 2 m/s 760 mmHg 62%
    08:00 +10°C° 0 mm 2 m/s 761 mmHg 57%
    09:00 +12°C° 0 mm 2 m/s 761 mmHg 51%
    10:00 +14°C° 0 mm 2 m/s 761 mmHg 45%
    11:00 +14°C° 0 mm 3 m/s 761 mmHg 39%
    12:00 +14°C° 0 mm 3 m/s 761 mmHg 38%
    13:00 +16°C° 0 mm 3 m/s 760 mmHg 37%
    14:00 +16°C° 0 mm 3 m/s 760 mmHg 37%
    15:00 +16°C° 0 mm 2 m/s 760 mmHg 38%
    16:00 +16°C° 0 mm 2 m/s 760 mmHg 39%
    17:00 +16°C° 0 mm 2 m/s 760 mmHg 39%
    18:00 +14°C° 0 mm 2 m/s 760 mmHg 45%
    19:00 +12°C° 0 mm 2 m/s 760 mmHg 50%
    20:00 +9°C° 0 mm 2 m/s 760 mmHg 56%
    21:00 +9°C° 0 mm 2 m/s 760 mmHg 57%
    22:00 +8°C° 0 mm 2 m/s 760 mmHg 59%
    23:00 +8°C° 0 mm 2 m/s 760 mmHg 61%

    23 Abril, Terça-feira

    Tempo Temperatura Precipitação Vento Pressão Humidade
    00:00 +8°C° 0 mm 1 m/s 761 mmHg 62%
    01:00 +8°C° 0 mm 1 m/s 761 mmHg 63%
    02:00 +7°C° 0 mm 1 m/s 761 mmHg 65%
    03:00 +7°C° 0 mm 1 m/s 761 mmHg 66%
    04:00 +7°C° 0 mm 1 m/s 761 mmHg 67%
    05:00 +5°C° 0 mm 0 m/s 761 mmHg 68%
    06:00 +8°C° 0 mm 1 m/s 761 mmHg 63%
    07:00 +10°C° 0 mm 1 m/s 761 mmHg 58%
    08:00 +12°C° 0 mm 2 m/s 762 mmHg 53%
    09:00 +13°C° 0 mm 2 m/s 762 mmHg 49%
    10:00 +15°C° 0 mm 2 m/s 762 mmHg 44%
    11:00 +16°C° 0 mm 3 m/s 762 mmHg 40%
    12:00 +16°C° 0 mm 3 m/s 761 mmHg 40%
    13:00 +16°C° 0 mm 3 m/s 761 mmHg 39%
    14:00 +17°C° 0 mm 3 m/s 761 mmHg 39%
    15:00 +16°C° 0 mm 3 m/s 760 mmHg 40%
    16:00 +16°C° 0 mm 3 m/s 760 mmHg 41%
    17:00 +16°C° 0 mm 3 m/s 760 mmHg 42%
    18:00 +13°C° 0 mm 3 m/s 760 mmHg 48%
    19:00 +12°C° 0 mm 3 m/s 760 mmHg 54%
    20:00 +10°C° 0 mm 2 m/s 760 mmHg 60%
    21:00 +9°C° 0 mm 2 m/s 760 mmHg 62%
    22:00 +8°C° 0 mm 2 m/s 760 mmHg 64%
    23:00 +8°C° 0 mm 2 m/s 760 mmHg 65%

    24 Abril, Quarta-feira

    Tempo Temperatura Precipitação Vento Pressão Humidade
    00:00 +7°C° 0 mm 2 m/s 760 mmHg 66%
    01:00 +7°C° 0 mm 2 m/s 761 mmHg 67%
    02:00 +7°C° 0 mm 2 m/s 761 mmHg 68%
    03:00 +6°C° 0 mm 2 m/s 761 mmHg 69%
    04:00 +6°C° 0 mm 2 m/s 761 mmHg 70%
    05:00 +6°C° 0 mm 2 m/s 761 mmHg 71%
    06:00 +7°C° 0 mm 2 m/s 761 mmHg 67%
    07:00 +9°C° 0 mm 3 m/s 761 mmHg 62%
    08:00 +11°C° 0 mm 3 m/s 761 mmHg 57%
    09:00 +12°C° 0 mm 4 m/s 761 mmHg 52%
    10:00 +14°C° 0 mm 4 m/s 761 mmHg 48%
    11:00 +15°C° 0 mm 5 m/s 761 mmHg 43%
    12:00 +15°C° 0 mm 5 m/s 761 mmHg 42%
    13:00 +16°C° 0 mm 5 m/s 760 mmHg 42%
    14:00 +16°C° 0 mm 5 m/s 760 mmHg 41%
    15:00 +16°C° 0 mm 5 m/s 760 mmHg 42%
    16:00 +17°C° 0 mm 4 m/s 760 mmHg 43%
    17:00 +17°C° 0 mm 4 m/s 759 mmHg 44%
    18:00 +14°C° 0 mm 4 m/s 759 mmHg 51%
    19:00 +12°C° 0 mm 3 m/s 759 mmHg 58%
    20:00 +11°C° 0 mm 3 m/s 759 mmHg 65%
    21:00 +10°C° 0 mm 3 m/s 759 mmHg 66%
    22:00 +9°C° 0 mm 3 m/s 759 mmHg 68%
    23:00 +9°C° 0 mm 3 m/s 759 mmHg 69%
    Mostrar mais